Wind_Speed
20 18 16 15 14 13 12 14 16 18 18 17 16 14 13 14 15 15 15 16 16 17 17 16 17 17 16 16 17 18 19 19 19 19 19 20 22 22 22 22 22 23 23 22 23 23 24 24 24 26 26 27 27 28 29 29 29 29 30 29 29 30 31 30 28 27 29 31 30 29 28 26 26 25 24 24 25 26 27 28 29 28 29 29 29
17 16 16 16 14 12 13 16 18 18 18 17 16 15 15 15 15 16 17 18 17 18 19 19 19 19 19 18 19 19 20 20 20 20 20 20 21 22 22 22 22 23 23 23 24 24 24 25 25 26 26 26 27 28 29 29 29 30 29 27 28 31 32 31 30 28 29 31 32 32 31 29 27 26 26 26 27 27 28 30 31 31 30 30 30
18 19 20 20 18 16 16 16 16 16 17 17 16 16 16 17 17 17 18 18 18 19 21 22 21 20 19 20 21 21 21 21 21 22 23 22 22 22 23 23 23 23 24 24 25 25 25 25 26 26 26 26 27 28 28 29 30 30 30 29 30 32 32 32 31 30 30 30 32 33 34 33 31 30 28 28 28 29 29 30 31 31 30 30 30
22 22 23 20 17 17 17 17 16 16 17 19 19 17 16 17 17 18 18 17 18 20 22 23 23 22 21 20 21 22 22 22 22 23 23 24 23 23 23 24 24 24 24 24 25 25 25 25 26 26 26 26 26 27 27 29 29 30 30 30 31 31 31 31 31 31 31 31 31 33 33 33 33 33 31 30 30 30 30 30 30 29 29 29 29
21 21 21 20 19 19 19 17 15 15 16 18 20 19 18 18 17 18 18 18 18 19 21 23 24 24 22 21 22 22 22 22 23 23 23 24 24 24 24 24 24 25 25 24 24 24 24 25 26 26 26 26 27 27 27 28 29 29 29 30 31 31 31 31 31 31 32 33 33 33 31 30 32 33 33 31 31 30 30 30 29 29 29 28 29
19 19 19 19 20 20 19 17 15 14 14 14 15 16 17 18 18 18 18 18 18 19 21 22 24 25 24 22 22 23 23 23 24 24 23 23 23 25 25 24 24 24 25 25 24 24 24 25 25 25 26 26 27 27 28 29 29 29 29 30 31 31 31 31 31 31 32 34 34 34 31 29 30 32 33 33 32 31 31 30 29 29 29 28 28
18 19 18 18 18 18 18 16 15 13 13 13 13 13 13 14 17 19 19 20 21 21 22 22 22 24 25 24 24 24 24 24 24 24 24 23 23 24 25 25 24 24 24 24 24 25 25 25 25 26 26 26 27 28 28 29 30 30 30 30 30 31 32 32 32 33 33 35 34 33 33 33 31 31 32 34 34 34 32 30 29 29 29 28 28
13 14 14 13 13 14 13 12 11 11 12 13 14 14 13 14 17 20 22 23 23 23 22 22 22 23 25 25 25 24 24 24 24 24 24 24 25 24 24 24 24 23 23 24 24 25 25 25 26 26 27 27 28 28 29 29 30 30 30 31 31 32 32 32 33 34 35 34 33 32 34 36 35 32 32 34 35 35 34 33 30 30 31 30 29
6 6 7 7 6 7 7 8 8 8 9 11 11 12 13 14 17 19 22 22 21 21 21 21 22 23 23 24 24 25 25 25 24 23 23 24 25 25 25 24 24 24 24 24 25 25 25 26 26 26 26 27 28 28 29 30 30 29 30 31 31 32 33 33 34 35 33 31 31 33 35 36 35 33 33 36 37 36 35 34 31 31 32 31 30
4 5 5 5 4 4 5 7 7 6 7 9 9 10 11 12 14 17 19 20 20 19 18 18 20 22 22 23 24 24 25 25 24 24 25 25 25 25 25 25 25 25 25 26 26 26 25 25 25 26 26 27 28 28 29 29 29 30 30 31 32 33 34 35 36 36 33 31 33 37 37 36 35 34 35 38 39 37 36 35 33 32 34 32 30
6 6 6 5 5 5 6 7 8 8 8 8 9 10 11 12 13 15 17 19 19 18 16 15 17 19 20 21 22 23 23 23 24 25 26 26 25 25 25 25 25 25 26 26 26 26 26 26 26 26 27 28 29 29 28 27 27 28 29 31 32 33 34 36 37 37 35 34 35 36 36 34 34 35 36 38 39 38 37 36 35 34 35 33 31
6 5 5 5 6 6 7 8 8 8 9 10 10 11 11 12 13 13 14 15 15 14 13 14 15 16 18 20 21 22 22 22 21 21 21 21 21 21 22 24 24 25 25 25 26 26 26 26 25 25 25 25 26 27 27 27 27 27 28 30 32 32 33 35 37 36 36 35 35 35 35 34 34 37 39 39 39 38 38 36 34 32 30 30 29
5 5 5 6 7 7 8 8 8 8 9 9 10 10 10 10 10 9 9 9 9 10 11 11 12 13 15 16 16 16 16 16 16 15 15 15 15 16 17 18 20 21 22 22 22 22 21 20 18 17 17 17 19 20 22 22 23 23 24 26 29 30 29 31 33 33 34 34 33 32 33 33 33 35 36 37 36 35 33 31 28 24 22 23 24
6 6 7 7 7 8 8 8 8 8 8 7 7 7 7 6 7 7 8 8 9 10 9 8 8 9 11 12 12 10 11 11 11 10 10 10 11 11 11 11 12 14 16 16 16 15 14 13 12 12 12 13 15 16 17 17 18 19 20 23 26 27 26 26 27 27 29 29 28 28 29 30 29 28 29 29 28 26 25 24 22 20 19 19 21
8 7 7 7 6 7 6 6 6 5 5 4 3 3 3 4 4 6 6 7 8 8 7 6 7 8 9 10 10 10 9 10 10 9 8 8 9 9 9 9 9 10 11 11 11 11 12 12 12 12 13 13 14 15 15 16 17 19 20 22 24 25 25 24 23 22 23 24 25 26 26 26 25 25 25 25 24 23 22 22 22 22 21 21 22
7 6 6 5 5 5 5 4 4 4 3 1 1 1 2 3 4 4 5 6 7 6 5 6 7 7 8 8 9 9 10 10 10 9 8 7 7 7 8 8 9 9 9 10 11 11 11 12 13 13 14 15 15 15 16 17 19 20 21 22 23 24 25 24 23 22 22 22 22 22 22 22 23 24 24 25 25 25 24 24 25 24 23 24 25
7 7 6 5 5 5 5 4 4 3 2 1 1 2 4 4 5 5 6 7 7 6 5 5 6 6 7 8 8 8 9 9 9 9 8 8 8 8 8 9 9 9 10 11 12 13 13 14 14 15 16 16 17 17 18 19 20 21 22 23 24 25 25 25 25 24 23 22 22 22 22 22 23 24 25 26 26 26 26 26 26 26 25 25 26
9 7 6 5 5 5 5 5 4 3 2 2 3 4 5 5 5 6 6 7 8 7 7 6 6 6 7 7 7 8 8 9 9 9 10 10 11 11 11 11 11 11 12 13 14 15 16 17 17 17 18 19 19 20 20 21 21 22 23 23 24 25 25 26 25 25 24 24 24 24 24 24 25 26 27 27 28 27 27 27 27 26 26 26 26
9 8 7 6 5 4 4 3 2 1 2 3 3 4 4 5 5 5 6 7 7 7 8 8 8 8 8 8 9 9 10 10 11 11 12 12 13 13 14 14 14 14 14 15 16 17 18 18 19 19 20 20 21 21 22 22 23 23 24 25 26 26 26 26 26 26 26 25 25 25 25 25 26 26 27 28 28 28 28 28 28 28 27 27 27
8 7 7 6 5 4 3 2 1 1 1 1 2 2 3 4 5 5 6 6 7 7 8 9 9 10 10 9 10 10 10 11 12 12 13 13 14 15 16 17 17 17 17 17 19 20 20 20 20 21 21 22 22 23 23 23 24 24 25 26 27 27 27 28 28 28 28 28 28 28 28 27 27 28 29 29 29 29 29 29 29 29 28 28 28
6 5 5 4 3 2 1 0 0 1 1 2 2 3 4 4 5 6 6 7 7 8 8 9 10 10 10 10 10 10 11 11 12 12 13 13 13 14 15 16 17 18 18 19 20 21 21 21 22 22 23 23 24 24 25 25 25 26 26 27 28 28 29 29 29 30 30 30 30 30 30 30 30 30 31 31 31 31 31 31 31 31 30 29 29
4 4 3 2 2 1 2 2 3 3 4 4 4 5 5 5 6 6 7 7 7 8 8 9 9 10 10 10 10 10 11 12 12 12 13 13 14 14 14 14 15 16 17 18 19 20 20 21 21 22 23 23 24 25 25 26 27 27 28 28 29 30 30 31 31 32 32 33 33 33 33 32 32 32 33 33 33 33 33 33 33 33 32 32 31
5 4 3 3 2 1 1 2 2 3 3 4 5 5 6 7 7 7 7 7 7 7 8 8 9 10 10 10 10 11 12 12 13 13 14 14 15 15 15 15 15 15 16 17 18 19 20 20 21 21 22 23 24 25 26 26 27 28 28 29 30 31 32 33 33 34 34 35 35 35 36 36 36 35 35 35 35 35 36 36 36 36 35 35 34
5 5 4 2 1 1 1 1 1 2 3 4 5 6 7 8 8 9 9 9 9 9 9 9 10 11 12 12 12 13 13 14 15 15 15 15 16 17 17 18 18 18 18 18 19 20 21 22 22 22 23 23 24 25 26 26 27 27 28 28 30 31 32 33 34 35 36 36 37 37 38 38 38 38 38 38 37 37 38 38 38 38 38 37 37
5 4 3 2 2 2 3 3 4 4 5 6 8 8 9 10 10 11 11 12 12 12 12 12 12 13 14 15 15 15 16 16 17 17 18 18 18 18 19 20 20 21 22 22 22 22 23 23 24 24 24 25 26 26 27 27 28 28 29 29 30 31 32 33 34 34 35 36 37 38 38 38 39 39 39 39 39 39 40 40 40 39 39 39 39
4 3 3 3 4 4 4 5 6 7 8 10 11 11 12 13 13 14 14 15 15 16 16 16 16 17 17 17 18 18 18 19 19 20 20 21 21 21 21 22 22 23 24 25 25 26 26 27 27 27 27 28 28 29 29 29 30 30 31 31 32 32 33 34 34 34 35 36 37 38 38 38 38 38 38 39 39 40 41 41 41 41 41 41 41
4 4 4 4 5 5 6 7 9 10 11 13 14 14 15 16 16 17 17 18 19 19 20 20 20 20 20 20 20 21 21 21 22 22 23 23 23 23 23 23 24 25 25 26 27 28 29 30 30 30 30 30 31 31 31 31 32 32 33 34 34 35 36 36 35 35 36 37 38 39 39 39 39 39 38 39 39 40 40 40 41 41 41 42 42
6 6 6 6 6 7 8 9 11 12 14 15 17 18 19 19 20 20 21 22 22 23 23 24 24 24 23 23 23 23 23 24 24 25 25 25 25 25 25 25 26 26 27 28 29 30 31 32 32 32 33 33 33 33 33 34 34 34 35 35 36 37 37 37 37 37 38 38 39 39 40 40 40 40 39 39 39 40 40 40 40 41 41 42 42
7 7 8 9 9 10 11 12 13 15 16 17 19 20 21 22 22 23 24 24 25 26 26 26 26 26 25 25 25 25 25 25 25 25 26 26 27 27 27 28 28 29 29 30 31 32 33 33 34 34 34 34 35 35 35 35 35 35 36 36 36 37 37 37 38 38 38 39 39 39 40 40 41 41 41 40 40 41 41 40 40 41 41 41 42
8 9 10 11 12 13 14 15 16 17 19 20 20 20 21 22 23 24 25 25 26 27 28 27 27 26 26 26 26 26 26 25 25 26 27 27 28 28 29 30 30 30 31 32 32 33 33 33 34 34 34 34 35 35 35 35 35 35 36 36 36 36 37 37 37 38 38 39 39 39 40 40 41 41 41 41 41 41 42 42 42 42 42 42 42
10 12 12 13 14 15 17 18 19 20 21 22 23 23 23 23 23 24 24 24 24 25 26 27 27 26 26 26 26 25 25 25 26 27 28 28 28 29 30 30 31 31 32 32 32 33 33 33 34 34 33 34 34 35 35 36 36 36 36 36 36 37 37 37 38 38 38 39 39 39 39 39 40 40 40 40 40 40 40 41 41 41 42 42 42
13 14 15 15 16 17 18 19 20 21 22 23 24 25 25 25 24 24 24 22 21 21 23 24 26 27 27 27 27 26 27 27 28 28 28 29 29 30 30 30 31 31 32 32 32 33 33 33 33 34 34 34 34 35 36 36 37 37 37 37 37 37 37 38 38 38 39 39 39 39 39 39 39 39 39 39 38 38 38 39 40 40 41 41 41
15 16 17 17 18 19 20 21 22 22 22 22 22 24 25 25 25 24 24 22 21 20 21 23 25 26 27 27 28 28 29 30 30 29 30 31 31 31 31 31 32 32 32 32 33 33 33 33 33 34 34 34 35 35 36 36 37 37 37 37 37 37 38 38 38 39 39 39 39 40 39 39 39 39 38 38 38 38 38 39 39 40 40 40 40
18 19 19 20 20 22 23 24 24 24 24 23 23 23 24 24 25 25 24 24 23 23 23 23 25 26 27 28 28 29 30 31 31 31 32 32 32 32 32 32 33 32 32 32 32 32 32 33 33 33 34 34 35 35 36 36 36 37 36 36 37 37 38 38 38 38 38 38 39 39 39 39 38 38 37 38 38 39 39 40 40 40 40 40 40
22 23 23 23 23 24 25 26 26 26 26 25 25 25 24 25 25 25 26 26 26 26 26 27 27 28 29 29 30 30 31 31 32 33 33 33 33 33 33 32 32 32 32 31 31 32 32 32 33 33 34 34 35 35 35 36 36 36 36 35 36 37 38 38 38 38 39 39 39 39 39 39 39 38 38 38 39 39 39 39 40 40 41 41 42
25 25 25 25 26 27 27 28 27 27 27 27 26 26 26 26 27 27 28 28 29 29 29 30 30 30 31 31 31 31 32 32 33 33 34 34 34 33 33 32 32 31 31 31 31 31 32 32 33 33 34 35 35 35 35 35 36 36 36 36 37 38 39 39 40 40 40 41 41 41 41 41 41 41 40 41 41 41 41 41 41 42 42 43 43
24 24 25 26 27 27 27 27 27 27 27 26 26 26 26 27 28 29 30 30 30 30 30 31 32 32 33 33 32 32 32 33 33 33 33 34 33 33 33 33 32 32 32 32 32 32 32 33 33 34 34 35 35 36 36 37 37 37 38 38 39 40 40 41 41 42 43 43 43 44 44 44 45 45 45 44 44 45 45 44 44 45 45 45 45
23 23 24 25 25 25 26 26 26 27 27 26 26 26 27 29 30 31 31 30 30 30 31 32 32 33 33 34 33 33 33 33 33 33 33 33 33 33 33 33 33 33 33 32 33 33 33 33 34 35 35 36 36 37 38 38 39 39 39 40 40 41 42 43 43 44 45 45 46 46 47 47 47 48 48 48 48 48 48 48 48 47 48 48 47
22 22 23 24 24 25 25 26 27 27 27 26 27 28 30 32 32 31 31 31 31 31 32 32 33 33 34 34 34 33 33 32 32 32 33 33 33 33 33 33 33 33 34 34 34 34 35 35 35 36 37 38 38 39 39 40 40 41 42 42 43 44 44 45 46 47 47 48 48 48 49 49 49 50 50 50 51 51 51 51 51 50 50 50 50
22 22 23 24 24 25 26 27 27 27 27 27 29 31 32 32 32 31 31 31 31 31 31 32 32 33 33 33 32 32 32 32 32 32 32 33 33 34 34 34 34 35 35 36 36 36 36 37 37 38 39 40 41 42 42 43 43 44 44 45 45 46 47 48 49 49 50 50 51 51 51 51 52 52 52 52 52 52 52 52 53 53 53 53 52
23 24 24 25 25 26 27 27 28 28 29 30 32 33 33 32 32 31 31 31 31 31 31 30 31 32 32 32 31 31 32 32 32 32 32 33 34 34 35 36 36 36 36 37 37 38 39 39 40 41 42 43 43 44 45 46 46 47 47 48 48 49 49 50 51 51 52 52 52 53 53 53 53 53 53 54 54 54 54 54 54 54 54 55 55
26 26 26 26 27 27 28 28 29 30 31 32 33 33 34 34 33 32 32 31 31 30 30 30 30 31 31 32 32 32 32 32 32 32 33 33 34 35 36 37 37 38 38 38 39 40 41 42 43 44 45 46 46 47 47 48 49 49 50 50 51 51 51 52 52 53 53 53 54 54 54 54 54 54 55 55 55 55 55 55 55 55 55 55 56
26 26 26 27 27 28 29 30 31 32 32 33 33 33 33 33 33 33 32 31 30 30 30 30 30 30 31 32 33 33 33 33 33 33 34 35 36 37 38 39 40 40 41 41 42 42 43 44 45 46 47 48 48 49 49 50 50 51 51 52 52 53 53 53 54 54 55 55 56 56 56 56 56 56 56 56 56 56 56 56 56 56 56 56 56
26 26 27 27 28 30 31 31 32 33 33 33 34 34 33 32 32 32 32 31 31 31 32 31 31 31 32 32 33 33 33 34 34 35 36 36 38 39 40 40 41 42 43 44 44 45 46 47 47 48 49 50 50 51 51 52 52 53 53 54 54 55 55 56 56 56 57 57 58 58 58 58 58 57 57 57 57 57 57 57 57 57 57 57 57
26 27 28 29 30 31 31 32 32 32 32 32 32 33 33 33 33 32 31 31 31 32 32 33 33 33 34 34 34 34 35 35 36 36 37 38 39 40 41 41 42 43 44 45 46 47 48 49 50 51 52 52 53 53 54 54 55 55 56 56 56 56 56 57 57 57 57 58 58 58 58 58 58 58 58 58 58 58 58 58 58 58 58 58 58
27 28 29 30 31 32 33 33 32 32 31 30 30 31 31 32 32 32 31 32 32 32 32 33 33 34 36 37 37 38 38 38 38 39 40 40 41 42 42 43 44 45 46 47 48 49 50 51 52 53 53 54 54 54 55 55 55 55 55 55 55 55 55 55 55 55 55 54 54 54 54 54 55 55 55 55 55 56 56 56 56 56 56 57 57
28 29 29 30 31 32 32 32 32 31 30 30 29 29 29 30 30 30 31 32 32 33 33 34 35 36 37 38 39 40 41 42 42 42 43 43 43 44 45 46 47 48 49 50 51 51 52 52 52 52 52 53 53 54 54 55 55 55 55 54 54 54 54 54 53 53 53 52 51 51 50 50 50 50 50 49 49 50 50 50 51 51 51 51 51
28 28 28 29 30 30 30 30 30 30 30 30 30 30 30 30 30 31 31 32 33 34 35 36 36 37 37 38 40 41 42 43 44 45 45 46 47 47 48 49 50 51 52 52 53 53 53 53 52 52 52 52 52 52 53 53 53 54 55 55 55 55 55 55 54 53 53 52 52 51 50 50 49 49 48 47 47 46 46 46 46 45 44 44 44
27 27 28 28 28 28 29 29 29 28 29 29 29 30 30 31 31 32 33 33 34 36 37 37 38 38 39 40 41 41 42 43 45 46 47 48 49 50 51 52 52 52 52 52 52 52 51 51 50 50 49 49 49 49 49 49 50 50 51 52 52 52 52 52 52 52 52 52 53 52 51 51 50 49 49 48 47 46 46 45 44 43 42 41 41
26 27 27 27 27 28 28 28 28 28 28 28 29 30 31 32 33 34 34 35 36 38 39 39 39 40 41 42 43 44 45 46 47 48 49 50 51 51 51 51 51 51 50 49 48 47 46 46 45 45 45 45 45 45 46 46 46 47 47 48 48 49 49 49 49 49 50 51 52 52 52 51 51 50 49 48 48 47 46 45 44 43 42 41 41
26 26 25 25 25 26 26 27 27 28 28 29 30 32 33 34 34 35 36 37 38 39 40 40 41 42 43 44 45 46 47 48 49 49 49 50 49 48 47 47 46 46 45 44 43 42 40 39 39 39 39 40 41 42 43 43 44 44 45 45 46 47 47 48 48 48 48 48 49 50 51 51 50 50 49 48 47 47 46 45 44 44 43 42 41
Wind_Direction
243 250 252 246 239 242 252 257 256 255 253 252 255 257 260 264 269 272 272 271 271 274 276 273 268 262 257 257 262 264 266 266 264 261 260 258 259 260 260 260 260 260 260 260 261 263 264 264 264 263 262 262 263 264 265 266 267 267 268 271 274 275 274 274 277 278 280 280 279 278 278 278 278 278 278 277 277 277 279 280 282 283 284 285 288
256 260 259 252 243 242 245 242 241 247 254 258 261 261 258 259 264 265 265 265 264 264 265 264 262 261 259 258 259 259 261 265 267 266 264 260 258 258 259 260 260 261 261 261 260 260 262 264 265 265 264 264 264 265 266 267 268 268 268 268 268 269 271 275 277 278 278 279 280 281 281 282 283 282 282 282 281 282 282 283 284 285 285 287 291
251 251 249 245 239 239 243 244 243 249 256 260 266 272 265 258 259 263 265 267 269 267 264 262 260 259 259 260 262 262 262 264 266 268 269 267 263 259 258 259 259 259 259 260 260 260 261 262 264 267 269 268 267 266 267 268 269 270 271 269 268 269 274 277 278 278 277 278 281 283 284 286 286 285 285 284 284 285 285 285 285 286 288 291 294
242 243 245 245 243 248 253 254 253 255 256 256 264 275 271 259 256 262 268 272 272 269 267 266 265 263 262 262 264 265 267 268 269 268 268 267 266 264 261 260 260 259 258 258 260 262 263 264 266 268 270 272 272 271 270 270 270 271 273 274 274 276 278 279 280 281 280 278 280 281 283 285 286 286 286 286 287 288 289 289 290 291 293 294 295
250 250 252 250 248 252 257 259 261 263 263 260 262 266 264 259 259 263 266 267 267 266 266 266 267 266 267 268 267 268 268 269 269 270 269 266 265 265 264 262 261 262 262 262 263 265 267 268 269 270 271 272 273 273 272 271 271 271 272 272 273 274 275 276 279 280 281 281 279 277 276 276 278 284 289 291 291 291 291 291 292 293 294 294 293
261 261 261 255 252 256 263 268 270 267 262 261 266 271 265 257 258 262 262 260 260 263 265 267 267 267 266 265 264 265 267 268 268 270 271 269 265 264 265 264 262 262 264 266 268 268 268 269 270 272 272 273 273 273 273 273 272 272 271 271 271 273 275 276 277 277 278 279 277 274 272 270 274 283 289 290 288 287 287 288 290 291 290 289 289
264 265 265 263 263 267 270 272 273 265 257 259 270 278 274 261 257 259 262 263 264 267 271 271 269 266 262 261 262 263 265 267 269 270 270 270 268 265 263 262 263 264 264 265 267 268 268 269 270 270 270 270 270 270 271 271 272 272 272 272 273 274 275 275 276 275 274 274 276 277 275 272 274 281 287 287 287 287 287 288 288 288 287 286 286
266 266 267 270 273 274 274 275 273 260 253 257 262 265 267 266 263 264 269 270 268 270 274 272 267 265 263 260 261 263 265 266 267 269 271 272 272 268 263 260 260 261 263 264 264 266 267 268 268 269 270 270 270 271 271 271 271 273 274 274 274 274 275 276 277 276 274 274 278 279 275 272 273 279 285 287 286 285 285 285 285 285 286 286 286
265 263 261 264 266 268 268 267 262 251 245 250 255 257 260 264 266 270 276 277 272 271 274 269 264 265 264 261 261 265 269 269 268 271 274 274 273 272 269 266 264 262 260 261 262 264 265 266 267 269 271 273 274 274 274 273 273 274 274 275 275 275 275 277 277 277 277 278 279 277 274 274 276 278 280 282 282 282 283 283 284 285 285 284 284
229 239 248 252 254 256 261 261 259 255 251 253 260 266 271 273 271 272 275 276 274 274 274 269 265 265 265 264 266 271 275 276 276 277 277 275 273 272 272 271 269 266 263 262 263 264 265 267 269 271 273 274 276 276 276 276 275 275 276 277 277 276 275 275 276 277 278 277 276 274 274 277 280 278 277 279 282 285 285 285 286 288 286 284 283
213 227 242 253 264 269 270 273 276 277 278 280 282 281 280 281 278 274 273 274 275 277 275 269 265 264 264 267 270 274 277 279 280 280 280 278 275 271 269 269 269 268 266 264 263 263 265 267 270 273 275 275 276 275 274 274 274 274 276 277 278 278 277 275 275 276 276 275 275 276 276 278 280 278 276 277 281 284 286 287 289 290 287 285 283
229 240 254 264 270 273 274 277 282 285 285 285 284 283 283 282 279 276 275 276 279 279 275 269 266 267 270 271 272 273 273 274 277 279 279 278 276 272 268 266 266 268 268 266 264 264 266 268 271 273 275 276 276 275 273 272 272 273 275 277 278 278 278 277 276 274 274 275 277 278 278 278 279 278 277 278 279 282 285 288 291 291 288 285 283
245 250 256 259 258 260 264 267 269 271 273 274 273 276 280 280 279 280 282 285 287 284 279 276 279 282 282 278 274 273 272 271 271 274 277 279 281 278 272 267 266 267 267 266 264 264 265 268 270 273 275 277 276 276 276 276 276 275 274 276 278 278 279 280 277 274 275 276 277 277 278 279 280 280 280 280 280 281 285 287 289 290 289 287 285
228 234 239 245 248 252 256 258 260 262 265 267 268 274 282 285 286 288 289 290 288 285 285 291 296 294 286 278 275 276 279 280 280 281 285 289 291 289 284 281 278 274 269 266 263 264 266 269 272 274 274 274 274 276 280 283 282 279 276 276 279 280 282 282 279 277 278 278 278 278 278 280 281 281 282 283 283 284 285 286 286 287 289 288 285
211 220 228 235 240 246 250 252 256 259 261 263 269 283 301 305 300 295 295 293 290 289 297 305 302 295 288 283 285 289 295 299 303 308 311 309 304 300 297 295 292 288 282 278 277 278 279 279 280 281 280 280 281 283 285 285 283 281 279 279 281 284 286 286 284 282 281 280 279 279 280 282 284 285 286 288 289 288 287 287 287 289 289 287 284
202 207 215 220 223 228 233 238 243 245 242 242 284 327 335 330 318 310 307 301 296 299 311 311 306 304 301 297 299 307 311 312 311 312 312 309 305 302 301 298 297 297 298 298 297 295 292 291 291 293 293 292 291 291 289 286 284 283 282 283 284 285 286 288 289 289 287 286 284 283 283 284 285 287 287 287 287 287 287 287 287 289 289 287 286
199 200 199 200 200 204 209 215 219 221 226 253 326 334 335 332 323 319 319 313 308 314 321 316 309 307 305 304 308 314 315 314 311 308 304 299 297 299 300 301 301 301 299 297 296 293 292 292 294 294 293 293 292 290 288 286 285 284 284 285 286 287 288 290 291 293 292 292 290 288 287 286 285 285 285 284 284 286 286 287 287 288 288 287 287
201 201 200 198 195 196 199 205 213 224 261 303 320 322 321 318 314 314 315 312 311 314 316 311 304 300 298 299 301 303 303 303 302 299 295 293 293 295 296 296 294 292 289 288 287 287 288 290 291 291 290 290 288 287 287 287 287 287 287 287 287 288 289 291 292 293 293 292 291 290 288 287 286 286 286 286 287 288 288 288 288 288 287 286 285
202 202 204 204 202 203 206 212 232 274 304 311 314 312 309 307 308 309 305 302 303 304 303 302 300 297 294 294 294 296 296 295 293 292 290 289 290 290 290 289 287 285 284 283 282 282 283 284 285 286 285 285 285 286 287 288 288 289 289 288 288 289 290 291 292 292 292 291 290 289 289 288 287 287 287 288 289 289 289 288 287 287 286 285 285
199 199 202 204 205 205 204 203 206 243 290 301 313 318 318 318 318 316 310 307 307 305 303 303 301 299 299 301 300 299 296 294 293 294 292 290 289 287 285 283 282 281 280 279 277 277 278 278 279 279 280 280 282 283 284 284 285 285 286 286 288 289 291 291 291 292 291 290 290 289 289 289 289 288 288 288 287 287 287 286 286 285 285 285 285
189 194 197 194 194 185 169 139 30 3 342 339 340 334 331 327 321 316 314 312 310 307 305 303 301 302 305 308 307 304 302 301 301 301 299 296 293 290 286 283 281 280 278 277 276 277 277 278 278 278 279 279 280 280 280 280 280 280 281 282 284 285 286 287 288 288 288 288 288 288 287 287 287 287 287 286 286 286 286 285 285 284 284 284 284
170 176 173 157 136 88 48 19 7 2 353 346 342 337 333 328 322 319 317 313 308 305 302 300 300 305 310 311 308 305 303 302 301 300 300 300 298 296 294 291 287 284 282 280 280 280 281 281 281 282 282 282 282 282 282 281 281 281 280 281 281 281 282 282 283 283 283 284 285 285 285 285 285 284 284 284 284 284 284 284 284 284 283 283 283
156 149 137 125 112 75 36 19 10 360 350 343 336 330 327 322 319 317 312 308 305 302 300 299 301 304 308 307 305 302 299 297 295 295 295 295 296 296 296 295 293 291 288 286 284 283 283 282 282 283 283 283 284 284 284 284 284 284 283 283 282 282 281 281 281 281 281 282 283 283 284 283 283 283 283 282 282 283 283 283 283 283 283 284 284
147 138 133 133 136 164 281 319 330 324 323 323 319 315 314 311 308 305 302 299 297 294 291 290 290 292 295 298 299 299 298 296 295 294 293 292 291 291 291 291 291 290 288 285 283 282 282 282 282 283 283 284 284 284 285 285 285 285 285 284 283 283 282 282 281 281 282 282 282 281 281 281 281 281 281 281 282 281 281 281 282 282 283 283 283
146 147 157 182 221 248 268 284 292 297 303 306 305 305 306 305 301 297 294 292 291 289 287 285 283 284 286 289 291 292 292 292 293 294 294 293 291 288 287 286 285 284 283 282 281 279 279 280 281 282 283 284 285 285 286 286 285 285 284 283 283 282 281 281 280 281 282 282 281 281 281 281 281 281 281 282 282 282 282 282 282 282 283 283 283
163 183 205 228 253 274 291 300 304 309 309 307 305 305 304 302 299 295 292 291 290 289 287 286 284 284 284 285 286 287 287 288 289 290 291 292 291 290 288 286 284 282 281 280 280 279 278 278 278 279 280 281 281 282 282 283 283 283 283 283 283 283 282 282 282 283 283 283 282 282 282 282 282 282 282 282 282 281 282 283 283 284 284 284 284
197 216 235 255 274 292 306 312 314 316 314 310 308 306 304 302 299 295 293 291 289 287 286 283 282 282 283 284 285 288 289 290 291 290 289 289 289 289 289 289 288 286 285 283 282 281 280 279 279 278 278 279 279 280 280 281 282 282 283 284 284 284 283 283 284 283 283 282 282 282 283 283 283 283 282 281 281 281 281 282 283 283 283 284 284
225 238 255 270 283 296 307 312 314 315 314 312 311 309 308 306 303 300 297 294 290 288 285 283 281 281 282 283 285 288 290 291 291 291 289 288 287 287 288 289 289 288 288 287 286 284 283 282 280 280 279 279 279 279 279 280 281 282 284 285 285 285 285 285 285 284 283 283 283 283 284 284 283 282 282 281 281 281 281 281 281 282 282 283 283
246 258 270 280 288 296 304 309 311 313 314 314 313 312 311 309 307 305 303 299 293 288 285 284 283 282 282 282 283 285 287 289 289 289 288 287 285 284 284 285 285 285 285 284 283 282 281 281 280 280 280 280 280 280 280 281 281 282 283 284 284 284 284 285 285 284 284 284 284 284 284 284 284 284 284 284 283 283 283 283 283 283 283 283 283
264 271 279 287 293 299 303 305 306 308 310 311 312 312 310 308 307 307 307 302 294 288 285 285 286 285 283 282 281 282 283 285 287 287 286 285 284 283 282 282 282 282 281 281 280 280 280 279 280 280 281 282 283 283 283 283 283 283 283 283 283 284 284 285 285 285 285 285 285 285 285 286 286 286 287 287 287 286 286 286 286 285 285 285 286
276 280 284 290 295 299 302 303 303 304 306 308 310 311 309 307 306 307 308 305 295 287 284 285 286 286 284 282 281 281 282 285 287 288 288 287 286 284 283 283 282 282 281 281 281 282 281 281 282 282 283 284 284 285 285 285 285 286 286 286 285 286 286 286 286 286 286 286 286 286 286 286 286 286 287 287 287 287 287 286 286 286 286 286 287
282 285 287 290 292 294 298 301 303 303 304 305 306 307 307 306 306 307 309 308 301 290 285 284 285 285 283 281 280 281 284 287 290 290 290 290 288 287 286 285 285 284 284 284 284 284 284 284 284 285 285 285 285 286 286 287 287 288 287 287 287 287 287 286 286 286 285 285 284 283 283 283 283 284 284 285 286 286 286 285 285 285 285 285 285
279 282 284 285 288 291 295 300 302 302 302 302 302 303 304 305 306 307 308 308 304 296 289 286 285 285 284 283 282 283 286 289 291 292 292 291 290 289 288 288 287 286 286 286 286 285 285 285 286 286 286 286 286 286 287 287 288 288 288 288 288 287 287 286 286 286 285 284 283 282 281 281 282 282 282 282 283 283 283 284 284 284 284 284 284
274 276 278 279 283 287 292 297 300 301 300 300 300 301 302 303 303 304 303 303 301 298 294 291 290 289 288 287 286 287 288 290 291 291 291 290 289 288 288 287 287 286 285 285 285 285 285 285 286 286 287 287 288 288 288 289 289 289 289 290 290 289 288 288 288 287 286 285 285 284 284 284 283 283 282 282 282 283 284 284 284 284 284 285 285
272 273 274 275 278 282 288 294 298 299 299 299 300 301 301 301 301 301 300 299 298 297 295 294 292 291 290 290 290 290 290 290 290 291 290 289 289 288 287 286 286 285 285 285 285 286 286 287 287 288 288 288 289 289 289 290 290 290 290 290 289 289 289 289 289 288 288 287 286 286 286 286 285 284 284 283 282 282 282 283 283 283 283 284 284
274 276 276 276 277 281 286 291 293 295 296 297 299 300 301 302 301 299 298 297 296 294 293 292 292 291 291 291 292 292 292 291 291 291 290 290 289 288 287 287 286 286 287 287 287 287 288 288 288 289 289 289 289 290 289 289 289 289 289 288 288 288 288 288 288 288 288 288 288 288 288 287 287 286 285 284 283 282 282 281 281 281 281 281 281
278 281 281 281 281 283 286 289 291 294 296 297 299 301 303 302 301 298 297 295 293 292 291 291 290 291 291 292 292 292 292 292 291 291 290 290 289 289 289 289 289 289 289 289 289 288 288 288 288 288 288 288 289 288 288 288 287 287 287 287 287 287 287 287 288 288 288 288 288 288 288 288 287 287 286 285 284 284 283 282 282 281 281 281 280
280 280 280 282 284 286 288 290 292 295 297 298 300 302 303 302 301 298 295 292 291 290 290 290 290 290 291 291 292 292 291 291 291 290 290 290 290 290 290 290 290 290 290 290 289 289 288 288 288 288 287 287 286 286 286 286 286 286 286 286 287 287 287 287 287 287 287 287 287 287 287 287 287 287 287 286 286 285 284 284 283 282 282 282 281
280 281 282 285 286 287 289 290 292 296 298 299 300 302 303 303 301 298 295 293 291 290 289 290 290 291 291 292 293 293 293 292 291 291 291 291 290 290 290 290 290 290 290 290 290 289 290 290 289 289 289 288 287 287 287 287 287 287 288 288 288 288 288 288 287 287 287 287 287 286 286 286 286 286 286 286 286 286 285 285 285 284 283 283 282
283 285 286 286 287 288 291 293 296 299 300 300 301 302 303 302 301 299 297 295 293 292 291 291 292 292 292 293 293 293 293 293 293 292 292 292 291 291 291 291 292 291 291 292 292 292 292 292 291 291 290 290 290 290 290 289 289 289 289 289 288 288 288 288 287 287 287 287 287 287 287 286 286 286 286 286 285 285 285 285 285 285 285 284 283
283 285 286 287 290 292 295 296 297 299 299 300 302 302 302 302 301 300 299 297 295 294 294 294 294 294 294 293 293 293 292 292 293 292 292 292 292 292 292 292 292 292 292 293 293 293 293 293 292 292 291 291 291 291 291 291 291 291 290 290 289 289 289 288 288 288 287 287 287 286 286 286 285 285 285 285 285 285 285 284 284 284 284 284 283
282 286 289 292 294 295 295 296 296 298 299 301 302 303 303 302 302 301 299 297 296 296 296 295 294 294 294 294 294 294 294 294 293 293 292 292 291 291 291 291 292 292 293 293 294 294 293 293 293 293 292 292 292 292 292 292 292 291 291 291 290 289 289 288 288 287 287 286 286 285 284 284 284 283 283 283 283 282 282 282 282 282 282 282 282
284 288 291 293 294 294 295 296 298 299 301 302 303 303 303 302 302 300 299 298 298 297 296 294 294 294 294 294 294 295 295 295 294 294 294 293 293 293 293 293 294 294 294 294 294 294 294 294 293 293 294 294 293 293 293 292 292 292 291 291 291 290 289 289 288 288 287 286 286 285 284 283 283 282 282 281 281 280 280 280 280 280 280 279 280
288 289 290 291 293 294 296 297 299 301 302 303 303 302 301 300 299 298 297 297 297 296 295 295 295 295 294 293 293 294 294 295 295 295 295 294 294 294 294 295 296 296 296 296 296 297 296 296 296 296 295 295 295 294 294 293 293 292 291 291 290 290 289 288 288 287 286 285 285 284 284 283 282 281 281 280 280 279 279 279 278 278 278 278 278
288 289 289 291 293 294 295 297 298 299 300 300 300 300 299 298 297 297 297 297 296 296 296 297 297 296 295 295 294 294 294 294 294 294 294 294 295 295 296 297 297 298 298 298 299 299 298 298 298 297 297 296 295 294 294 293 292 292 291 290 290 289 288 287 286 286 285 284 284 283 283 282 282 281 280 280 279 279 278 278 278 277 277 277 277
287 289 290 292 293 294 296 298 298 298 298 297 296 296 295 295 296 296 297 296 296 296 296 296 296 296 296 296 297 297 296 296 296 296 297 298 298 299 299 299 299 299 299 299 299 298 298 298 298 297 297 296 295 295 294 293 293 292 292 292 291 290 290 289 288 288 287 286 286 285 284 283 282 281 281 280 280 279 278 278 277 277 276 277 277
288 289 291 293 294 296 297 298 297 297 297 295 294 292 292 292 293 293 293 293 294 295 295 295 296 296 297 298 299 299 299 299 300 300 301 301 301 301 301 301 300 300 300 299 299 299 298 298 298 297 297 297 296 296 296 296 296 295 295 294 293 293 292 292 291 291 290 290 289 288 286 285 284 283 282 282 281 280 279 278 278 277 277 277 277
291 291 292 293 294 295 296 296 296 296 295 294 294 293 293 293 293 292 293 294 295 295 296 296 296 297 298 299 299 299 300 300 301 302 302 303 303 302 302 301 301 301 300 300 300 299 299 299 299 299 298 298 298 298 298 297 297 297 296 296 295 294 294 294 293 293 292 291 290 288 287 286 284 283 283 282 281 280 280 279 279 279 279 278 278
293 293 293 293 293 293 293 293 293 293 292 293 293 293 294 294 294 295 296 297 297 296 296 297 298 299 300 299 300 300 301 301 302 302 302 302 302 302 302 301 301 301 301 301 301 301 301 301 301 301 301 300 300 300 299 299 299 298 298 297 297 297 296 295 294 293 292 291 290 289 287 286 285 284 283 281 280 280 279 278 278 279 278 278 278
291 291 291 291 292 292 293 293 293 292 293 293 294 295 295 296 296 297 298 298 298 298 298 300 301 301 301 302 302 303 303 303 302 302 302 302 302 302 302 302 302 302 302 302 302 303 303 303 303 303 303 303 302 302 302 302 301 301 300 300 299 299 298 297 295 294 292 291 290 289 288 287 286 284 283 282 280 279 278 277 276 276 276 276 277
291 291 291 291 292 292 292 293 294 295 296 296 297 297 298 299 299 300 299 299 299 300 301 302 303 303 303 303 303 303 303 303 303 302 302 303 303 303 303 303 303 304 304 305 305 306 306 307 307 307 307 307 307 307 307 307 306 305 304 303 302 300 299 298 297 296 294 293 291 290 289 287 286 285 283 282 280 278 277 275 274 273 273 274 275
Height
5911 5912 5913 5913 5913 5915 5918 5918 5917 5916 5916 5916 5917 5918 5917 5917 5916 5916 5915 5915 5914 5914 5914 5915 5915 5915 5915 5915 5915 5914 5914 5913 5913 5914 5914 5914 5914 5915 5915 5915 5915 5915 5915 5915 5915 5914 5914 5914 5915 5914 5914 5915 5915 5915 5915 5914 5914 5914 5914 5915 5915 5915 5915 5915 5916 5917 5915 5914 5913 5912 5912 5912 5912 5912 5912 5911 5910 5910 5909 5907 5907 5907 5906 5906 5905
5912 5911 5912 5913 5912 5913 5914 5913 5912 5913 5915 5916 5917 5916 5916 5914 5914 5913 5912 5912 5912 5912 5911 5910 5910 5911 5912 5913 5913 5913 5912 5911 5911 5911 5911 5911 5912 5912 5912 5912 5912 5912 5913 5913 5912 5912 5912 5912 5912 5912 5912 5912 5912 5912 5912 5911 5911 5911 5911 5912 5912 5911 5911 5911 5912 5912 5912 5911 5910 5910 5909 5909 5908 5908 5908 5907 5907 5906 5905 5904 5903 5903 5903 5903 5902
5908 5906 5906 5908 5909 5909 5910 5910 5911 5913 5914 5914 5914 5914 5914 5912 5911 5910 5909 5910 5911 5910 5909 5908 5907 5908 5909 5909 5910 5911 5911 5910 5910 5908 5908 5908 5909 5909 5909 5909 5909 5909 5910 5910 5910 5910 5910 5910 5910 5909 5909 5909 5909 5909 5909 5908 5908 5908 5908 5909 5908 5908 5908 5908 5908 5908 5908 5907 5907 5906 5906 5906 5906 5905 5905 5904 5903 5903 5903 5902 5901 5901 5900 5900 5900
5902 5903 5904 5906 5908 5908 5908 5909 5910 5910 5911 5911 5911 5911 5911 5910 5908 5907 5907 5907 5908 5908 5907 5907 5906 5906 5905 5906 5906 5907 5907 5908 5907 5907 5906 5906 5906 5906 5906 5906 5906 5906 5907 5907 5907 5908 5908 5908 5908 5907 5907 5907 5907 5906 5906 5906 5905 5905 5905 5905 5905 5905 5905 5904 5904 5904 5904 5903 5903 5902 5902 5902 5902 5901 5900 5901 5901 5900 5900 5899 5899 5898 5898 5898 5897
5903 5904 5904 5906 5906 5905 5905 5906 5907 5909 5909 5908 5908 5909 5908 5907 5906 5905 5904 5904 5904 5904 5905 5904 5904 5904 5904 5903 5903 5903 5903 5903 5904 5904 5904 5903 5903 5903 5903 5904 5904 5904 5904 5905 5905 5906 5906 5906 5905 5905 5904 5904 5904 5904 5903 5903 5903 5902 5902 5901 5901 5900 5900 5900 5900 5900 5900 5900 5899 5898 5897 5897 5897 5896 5896 5897 5896 5896 5895 5895 5895 5895 5895 5894 5893
5904 5904 5904 5904 5903 5902 5903 5904 5905 5906 5906 5905 5905 5905 5905 5904 5903 5901 5900 5899 5900 5900 5901 5901 5901 5901 5901 5900 5900 5900 5900 5900 5900 5901 5901 5901 5901 5900 5900 5901 5901 5901 5902 5902 5903 5903 5903 5902 5902 5902 5901 5901 5901 5901 5900 5900 5899 5899 5898 5898 5897 5897 5896 5896 5896 5895 5895 5894 5894 5893 5894 5893 5893 5893 5893 5892 5891 5890 5891 5892 5893 5892 5891 5890 5890
5902 5902 5902 5902 5902 5901 5901 5901 5902 5903 5903 5903 5902 5902 5901 5901 5900 5898 5897 5897 5898 5898 5898 5898 5898 5897 5897 5897 5897 5897 5897 5897 5897 5898 5898 5898 5898 5898 5898 5898 5898 5898 5898 5899 5899 5899 5899 5899 5899 5898 5898 5897 5897 5897 5896 5896 5895 5895 5895 5894 5894 5894 5893 5893 5892 5891 5890 5889 5889 5891 5892 5891 5890 5890 5889 5888 5887 5886 5887 5888 5889 5888 5886 5886 5886
5900 5900 5900 5900 5900 5899 5899 5899 5899 5900 5900 5900 5899 5899 5898 5898 5896 5895 5895 5896 5896 5896 5895 5895 5894 5894 5894 5893 5894 5894 5894 5894 5895 5895 5895 5895 5895 5895 5895 5895 5895 5895 5895 5895 5895 5895 5895 5895 5895 5895 5894 5894 5893 5893 5892 5892 5892 5892 5891 5891 5891 5890 5889 5889 5888 5886 5886 5887 5889 5889 5887 5885 5886 5887 5886 5884 5883 5882 5882 5883 5884 5883 5882 5882 5882
5899 5898 5898 5897 5897 5896 5896 5897 5897 5897 5897 5897 5897 5897 5896 5896 5894 5894 5894 5893 5892 5892 5892 5891 5891 5891 5891 5891 5891 5891 5891 5891 5891 5892 5892 5892 5892 5891 5892 5892 5892 5891 5891 5891 5891 5891 5892 5892 5892 5892 5892 5891 5891 5890 5889 5889 5888 5888 5888 5887 5887 5886 5886 5885 5883 5881 5883 5885 5885 5882 5881 5881 5882 5883 5881 5878 5877 5878 5878 5878 5880 5880 5878 5878 5878
5897 5896 5896 5895 5895 5895 5895 5895 5895 5895 5895 5895 5895 5895 5895 5895 5894 5893 5892 5891 5889 5888 5888 5888 5888 5888 5888 5888 5888 5888 5888 5888 5888 5888 5889 5890 5889 5889 5888 5888 5888 5887 5887 5888 5888 5888 5888 5888 5888 5888 5888 5888 5888 5887 5886 5885 5885 5884 5884 5883 5883 5882 5881 5880 5878 5878 5880 5882 5880 5877 5876 5878 5878 5878 5876 5873 5872 5873 5873 5874 5875 5876 5874 5874 5874
5895 5895 5894 5893 5893 5893 5894 5893 5893 5893 5894 5894 5893 5893 5893 5894 5893 5892 5891 5889 5887 5886 5885 5885 5885 5885 5885 5885 5885 5885 5885 5885 5885 5885 5885 5886 5886 5886 5885 5885 5884 5884 5883 5884 5884 5884 5884 5884 5884 5884 5885 5884 5884 5883 5883 5882 5881 5880 5879 5878 5877 5877 5876 5874 5873 5874 5875 5876 5875 5873 5873 5874 5874 5873 5871 5869 5868 5868 5868 5868 5870 5870 5868 5868 5868
5893 5893 5893 5892 5892 5892 5892 5891 5891 5891 5892 5892 5891 5892 5892 5892 5892 5891 5889 5887 5886 5884 5883 5883 5882 5882 5883 5882 5882 5882 5882 5882 5882 5882 5882 5882 5882 5881 5881 5881 5881 5880 5880 5880 5880 5880 5880 5881 5881 5880 5880 5880 5879 5879 5878 5878 5877 5876 5876 5874 5872 5872 5872 5870 5869 5870 5870 5871 5871 5870 5869 5869 5869 5868 5865 5864 5865 5864 5864 5864 5864 5864 5863 5862 5861
5891 5891 5891 5890 5890 5890 5890 5890 5890 5890 5890 5890 5890 5890 5890 5890 5889 5888 5887 5886 5884 5883 5882 5882 5882 5882 5882 5882 5882 5881 5881 5881 5880 5880 5880 5880 5879 5878 5878 5877 5877 5877 5877 5876 5876 5876 5877 5877 5877 5876 5876 5876 5876 5875 5874 5873 5873 5873 5872 5870 5868 5868 5869 5867 5866 5866 5865 5866 5866 5866 5865 5864 5864 5863 5861 5860 5861 5861 5860 5861 5860 5860 5859 5857 5856
5889 5888 5888 5888 5888 5888 5888 5888 5888 5888 5888 5889 5888 5888 5888 5887 5887 5886 5885 5884 5883 5882 5881 5882 5882 5882 5881 5881 5881 5880 5880 5880 5879 5878 5877 5877 5877 5876 5875 5875 5874 5874 5874 5874 5874 5874 5874 5874 5873 5873 5873 5873 5873 5872 5871 5871 5870 5870 5869 5867 5865 5864 5865 5864 5863 5863 5862 5862 5862 5862 5861 5860 5859 5858 5857 5856 5857 5857 5857 5857 5857 5856 5856 5854 5853
5887 5887 5887 5887 5887 5887 5887 5887 5887 5887 5887 5886 5886 5886 5886 5885 5884 5884 5883 5882 5881 5881 5881 5881 5881 5880 5880 5880 5879 5878 5878 5878 5878 5877 5876 5875 5875 5874 5874 5873 5873 5872 5872 5872 5872 5872 5872 5871 5871 5871 5871 5870 5870 5870 5869 5868 5867 5866 5865 5864 5862 5861 5861 5861 5860 5861 5860 5860 5859 5859 5858 5857 5855 5854 5853 5852 5853 5854 5854 5854 5853 5852 5852 5851 5850
5886 5885 5885 5885 5885 5885 5885 5885 5885 5885 5884 5884 5884 5884 5883 5883 5882 5882 5881 5881 5880 5880 5880 5880 5880 5879 5879 5878 5878 5877 5876 5876 5877 5876 5875 5874 5873 5873 5873 5872 5872 5871 5871 5871 5870 5870 5869 5869 5868 5868 5868 5868 5868 5867 5867 5866 5864 5863 5862 5861 5860 5859 5858 5857 5857 5857 5857 5857 5856 5856 5855 5854 5852 5851 5850 5850 5850 5850 5850 5850 5849 5848 5848 5847 5846
5885 5884 5884 5884 5884 5884 5884 5883 5883 5883 5882 5882 5882 5882 5881 5881 5881 5881 5880 5879 5879 5879 5879 5879 5878 5878 5877 5877 5877 5876 5876 5876 5875 5874 5873 5872 5872 5872 5871 5871 5871 5870 5870 5869 5868 5868 5867 5866 5866 5866 5866 5865 5865 5864 5864 5862 5861 5860 5859 5858 5857 5856 5855 5854 5853 5853 5853 5853 5852 5852 5851 5851 5850 5849 5848 5848 5848 5847 5847 5846 5845 5844 5844 5843 5842
5883 5883 5884 5883 5883 5883 5883 5882 5882 5882 5881 5881 5881 5880 5880 5880 5880 5880 5879 5879 5878 5878 5878 5878 5877 5877 5877 5876 5876 5875 5875 5874 5873 5872 5872 5871 5870 5870 5870 5869 5869 5869 5868 5868 5867 5865 5865 5864 5864 5863 5863 5862 5862 5861 5860 5859 5858 5857 5856 5855 5853 5852 5851 5851 5850 5850 5850 5849 5849 5848 5848 5848 5847 5847 5846 5845 5844 5844 5843 5842 5841 5840 5840 5840 5839
5882 5882 5882 5882 5882 5882 5882 5882 5881 5881 5881 5880 5880 5880 5880 5880 5879 5879 5879 5878 5878 5877 5877 5876 5876 5876 5875 5875 5875 5874 5873 5872 5871 5870 5870 5869 5868 5868 5867 5867 5867 5867 5866 5865 5864 5863 5862 5862 5861 5861 5860 5859 5858 5857 5856 5855 5854 5853 5852 5851 5849 5849 5848 5847 5846 5846 5846 5845 5845 5845 5845 5844 5844 5843 5842 5841 5840 5839 5838 5838 5837 5837 5836 5836 5835
5881 5881 5881 5882 5882 5882 5882 5881 5881 5881 5881 5880 5880 5879 5879 5879 5878 5878 5877 5877 5876 5876 5875 5875 5874 5873 5873 5873 5872 5871 5870 5869 5869 5868 5867 5867 5866 5865 5865 5864 5864 5864 5863 5862 5861 5860 5859 5859 5858 5857 5857 5856 5855 5854 5853 5852 5852 5851 5849 5848 5846 5845 5845 5844 5843 5842 5842 5841 5841 5840 5840 5840 5839 5838 5837 5836 5835 5835 5834 5833 5833 5832 5832 5831 5830
5879 5880 5880 5880 5881 5881 5881 5881 5881 5880 5880 5880 5879 5879 5878 5878 5877 5877 5876 5876 5875 5875 5874 5873 5872 5871 5871 5871 5870 5869 5868 5867 5866 5866 5865 5864 5863 5863 5862 5861 5861 5860 5860 5859 5858 5857 5856 5856 5855 5854 5853 5853 5852 5851 5850 5849 5849 5848 5846 5845 5844 5843 5842 5841 5840 5839 5838 5837 5836 5836 5835 5835 5834 5834 5833 5832 5831 5830 5829 5828 5828 5827 5827 5827 5826
5878 5879 5879 5879 5880 5880 5880 5880 5880 5879 5879 5878 5878 5877 5877 5877 5876 5876 5875 5875 5874 5874 5873 5872 5871 5870 5869 5869 5868 5867 5866 5865 5864 5864 5863 5862 5861 5860 5859 5858 5858 5857 5857 5856 5855 5854 5853 5853 5852 5851 5850 5850 5849 5848 5847 5846 5845 5844 5843 5842 5841 5840 5838 5837 5836 5835 5834 5833 5832 5831 5830 5830 5829 5829 5828 5827 5826 5825 5824 5823 5822 5822 5822 5821 5821
5878 5878 5878 5878 5878 5878 5878 5878 5878 5877 5877 5876 5876 5876 5875 5875 5875 5875 5874 5874 5873 5872 5872 5871 5870 5869 5868 5867 5866 5866 5865 5864 5863 5862 5861 5860 5859 5858 5857 5856 5855 5854 5854 5853 5852 5851 5850 5849 5849 5848 5847 5846 5845 5845 5844 5843 5842 5841 5840 5839 5838 5837 5835 5834 5832 5831 5830 5829 5828 5827 5826 5825 5824 5824 5823 5822 5822 5821 5820 5818 5817 5817 5816 5816 5815
5876 5877 5877 5877 5877 5877 5877 5876 5876 5875 5875 5874 5874 5874 5874 5873 5873 5873 5872 5872 5871 5871 5870 5869 5868 5867 5866 5865 5864 5863 5862 5861 5860 5860 5859 5858 5857 5856 5855 5854 5853 5852 5851 5850 5849 5848 5847 5846 5845 5845 5844 5843 5842 5841 5840 5840 5839 5837 5837 5836 5835 5833 5832 5830 5829 5827 5826 5825 5824 5822 5821 5820 5819 5819 5818 5818 5817 5816 5815 5813 5812 5812 5811 5810 5809
5875 5875 5875 5875 5875 5875 5875 5875 5874 5874 5873 5873 5872 5872 5872 5872 5871 5871 5870 5869 5869 5868 5867 5867 5866 5865 5864 5863 5862 5861 5860 5859 5858 5857 5856 5856 5855 5854 5853 5852 5850 5849 5848 5847 5847 5846 5845 5844 5843 5842 5841 5840 5839 5838 5837 5836 5835 5834 5833 5832 5831 5830 5828 5826 5825 5824 5823 5821 5819 5818 5817 5816 5815 5814 5813 5813 5811 5810 5808 5807 5807 5806 5805 5804 5803
5873 5873 5873 5874 5874 5874 5874 5873 5872 5872 5871 5871 5870 5870 5870 5869 5869 5868 5868 5867 5866 5865 5864 5864 5863 5862 5861 5860 5859 5858 5857 5857 5856 5855 5854 5853 5852 5851 5850 5849 5848 5846 5845 5844 5843 5842 5841 5840 5839 5838 5838 5837 5835 5834 5833 5832 5831 5829 5828 5827 5826 5825 5823 5821 5821 5820 5818 5816 5814 5812 5811 5811 5810 5809 5808 5807 5805 5804 5802 5801 5801 5800 5799 5798 5797
5872 5872 5872 5873 5873 5873 5872 5871 5870 5870 5869 5868 5868 5868 5868 5867 5867 5866 5865 5864 5864 5863 5862 5861 5860 5859 5858 5857 5856 5855 5854 5853 5853 5852 5850 5849 5848 5847 5846 5845 5844 5843 5841 5840 5839 5838 5837 5836 5835 5834 5833 5833 5831 5830 5829 5828 5826 5825 5823 5822 5821 5819 5818 5817 5815 5814 5813 5811 5809 5807 5806 5805 5804 5803 5802 5801 5800 5798 5797 5796 5795 5794 5793 5792 5791
5871 5871 5871 5871 5871 5871 5870 5869 5868 5868 5867 5866 5866 5865 5865 5864 5864 5863 5862 5862 5861 5859 5858 5857 5856 5856 5855 5854 5853 5852 5851 5850 5849 5848 5847 5846 5844 5843 5842 5841 5840 5838 5837 5836 5835 5833 5832 5831 5830 5829 5828 5828 5827 5825 5824 5822 5821 5820 5818 5817 5815 5814 5812 5811 5810 5809 5807 5806 5804 5803 5801 5800 5799 5798 5797 5795 5794 5793 5792 5791 5789 5788 5787 5786 5784
5869 5870 5869 5869 5869 5869 5868 5867 5867 5866 5865 5865 5864 5863 5862 5861 5860 5859 5859 5858 5857 5856 5854 5853 5853 5852 5851 5850 5850 5849 5848 5847 5846 5844 5843 5842 5841 5840 5838 5837 5836 5834 5833 5832 5830 5829 5828 5826 5825 5824 5823 5822 5821 5820 5818 5817 5816 5815 5813 5812 5810 5808 5807 5806 5805 5803 5802 5801 5799 5798 5796 5795 5793 5792 5791 5789 5788 5787 5785 5784 5783 5782 5781 5780 5779
5868 5868 5868 5867 5867 5866 5866 5866 5865 5864 5864 5863 5863 5862 5861 5860 5858 5857 5855 5854 5852 5851 5850 5850 5849 5848 5848 5847 5846 5845 5844 5844 5842 5841 5840 5838 5837 5836 5835 5833 5832 5830 5829 5827 5825 5824 5823 5822 5820 5819 5818 5816 5815 5814 5813 5812 5811 5809 5808 5807 5805 5804 5803 5801 5800 5798 5797 5795 5794 5793 5791 5790 5788 5786 5785 5784 5783 5781 5779 5778 5777 5776 5775 5774 5772
5866 5866 5865 5865 5865 5864 5864 5864 5863 5863 5862 5861 5860 5859 5859 5857 5856 5854 5853 5851 5849 5848 5847 5846 5846 5845 5844 5843 5842 5842 5841 5840 5839 5837 5836 5834 5833 5832 5830 5829 5827 5826 5824 5822 5821 5820 5818 5816 5815 5814 5813 5811 5810 5808 5807 5806 5805 5804 5803 5802 5800 5799 5798 5796 5794 5793 5791 5790 5788 5787 5786 5785 5783 5782 5780 5779 5778 5776 5775 5773 5772 5770 5769 5768 5767
5863 5862 5862 5862 5862 5862 5861 5861 5861 5860 5860 5859 5858 5856 5855 5854 5853 5852 5850 5848 5847 5845 5844 5843 5842 5841 5840 5839 5839 5838 5837 5836 5835 5833 5832 5830 5828 5827 5825 5824 5822 5821 5819 5818 5816 5815 5813 5812 5810 5809 5807 5806 5805 5803 5802 5800 5799 5798 5797 5796 5795 5794 5792 5791 5789 5788 5786 5784 5783 5782 5781 5780 5779 5777 5776 5774 5773 5771 5770 5768 5767 5765 5764 5763 5762
5860 5859 5859 5859 5859 5859 5858 5858 5858 5857 5857 5856 5855 5853 5852 5850 5849 5848 5847 5846 5844 5843 5842 5840 5839 5838 5837 5836 5835 5834 5833 5832 5830 5829 5827 5825 5823 5822 5820 5819 5817 5816 5814 5813 5811 5810 5808 5807 5805 5804 5802 5801 5799 5798 5796 5795 5794 5792 5791 5790 5789 5788 5786 5785 5784 5782 5780 5779 5777 5776 5775 5774 5773 5772 5771 5770 5768 5767 5765 5764 5762 5760 5759 5758 5757
5857 5857 5857 5857 5856 5856 5855 5855 5854 5854 5853 5853 5852 5851 5849 5848 5846 5845 5844 5843 5841 5840 5839 5837 5836 5834 5833 5832 5831 5830 5829 5828 5826 5824 5822 5820 5819 5817 5816 5814 5812 5811 5810 5808 5807 5805 5803 5802 5800 5799 5797 5795 5794 5792 5791 5790 5788 5787 5786 5784 5783 5781 5780 5779 5777 5776 5774 5773 5771 5770 5769 5768 5768 5767 5765 5764 5762 5761 5759 5758 5756 5755 5753 5752 5751
5854 5854 5854 5854 5854 5853 5852 5852 5851 5850 5850 5849 5848 5847 5846 5845 5844 5842 5841 5839 5838 5836 5835 5834 5832 5831 5829 5828 5827 5826 5825 5823 5822 5820 5818 5816 5814 5813 5811 5810 5808 5806 5805 5803 5802 5800 5798 5797 5795 5794 5792 5790 5789 5787 5786 5784 5783 5782 5780 5779 5777 5775 5774 5772 5771 5769 5768 5767 5765 5764 5763 5762 5761 5760 5759 5758 5757 5755 5754 5752 5751 5749 5748 5746 5745
5851 5851 5851 5851 5851 5850 5849 5849 5848 5847 5846 5845 5844 5843 5843 5842 5840 5839 5837 5836 5834 5833 5831 5830 5828 5826 5825 5824 5823 5822 5820 5819 5817 5815 5814 5812 5810 5808 5807 5805 5804 5802 5800 5799 5797 5795 5793 5792 5790 5788 5787 5785 5783 5782 5781 5779 5778 5776 5775 5773 5771 5770 5768 5767 5765 5764 5762 5761 5759 5758 5757 5756 5754 5754 5752 5751 5750 5749 5748 5747 5745 5744 5743 5741 5740
5848 5848 5848 5848 5847 5846 5845 5845 5844 5843 5842 5841 5840 5840 5839 5837 5836 5835 5833 5832 5831 5829 5827 5826 5824 5822 5821 5819 5818 5817 5816 5814 5812 5811 5809 5807 5805 5803 5802 5800 5798 5797 5795 5793 5792 5790 5788 5787 5785 5784 5782 5780 5779 5777 5776 5774 5772 5771 5769 5767 5765 5764 5762 5761 5760 5758 5756 5755 5753 5752 5751 5749 5748 5746 5745 5744 5743 5742 5740 5739 5738 5737 5736 5735 5734
5845 5845 5844 5843 5843 5842 5841 5840 5840 5839 5838 5837 5836 5835 5834 5833 5832 5830 5829 5828 5826 5825 5823 5822 5820 5818 5816 5815 5814 5812 5811 5810 5808 5806 5804 5802 5801 5799 5797 5795 5793 5791 5790 5788 5786 5785 5783 5782 5780 5779 5777 5775 5774 5772 5770 5768 5766 5765 5763 5761 5760 5758 5757 5755 5754 5752 5751 5749 5748 5746 5744 5743 5741 5740 5738 5736 5735 5734 5732 5731 5730 5729 5728 5727 5726
5842 5841 5840 5839 5839 5838 5837 5837 5836 5835 5834 5833 5832 5831 5830 5828 5826 5825 5824 5823 5822 5821 5819 5817 5815 5813 5812 5810 5809 5807 5806 5805 5803 5801 5800 5798 5796 5794 5792 5790 5788 5786 5785 5783 5781 5780 5779 5777 5775 5773 5771 5770 5768 5766 5764 5763 5761 5759 5757 5756 5754 5752 5750 5749 5747 5746 5744 5742 5741 5739 5738 5736 5734 5733 5731 5729 5727 5726 5724 5723 5722 5721 5720 5719 5718
5838 5837 5836 5835 5834 5834 5834 5833 5832 5831 5830 5829 5828 5826 5825 5823 5822 5820 5819 5818 5817 5815 5814 5812 5810 5808 5807 5805 5804 5802 5801 5799 5798 5797 5795 5793 5791 5789 5787 5785 5783 5782 5780 5778 5776 5775 5774 5772 5770 5768 5766 5763 5761 5760 5758 5756 5754 5753 5751 5749 5747 5746 5744 5742 5740 5739 5737 5735 5733 5732 5730 5728 5727 5725 5723 5721 5719 5718 5716 5715 5713 5712 5711 5709 5708
5834 5833 5832 5831 5830 5830 5830 5829 5828 5827 5826 5824 5823 5822 5820 5818 5817 5816 5815 5813 5812 5810 5809 5807 5805 5803 5801 5800 5799 5797 5796 5795 5793 5792 5790 5788 5786 5784 5782 5780 5778 5777 5775 5773 5772 5770 5768 5766 5764 5761 5759 5757 5755 5754 5751 5749 5747 5745 5744 5742 5740 5738 5736 5735 5733 5731 5729 5728 5726 5724 5722 5720 5718 5717 5715 5713 5711 5709 5708 5706 5705 5704 5702 5700 5698
5829 5828 5827 5827 5826 5826 5825 5825 5824 5823 5821 5820 5819 5817 5815 5814 5812 5811 5810 5808 5807 5805 5804 5802 5800 5798 5796 5795 5793 5792 5791 5790 5789 5787 5785 5783 5781 5779 5777 5775 5773 5772 5770 5768 5766 5764 5762 5760 5757 5754 5752 5750 5749 5747 5745 5742 5740 5738 5736 5734 5732 5730 5728 5726 5724 5723 5721 5719 5717 5715 5714 5712 5710 5708 5706 5704 5703 5701 5699 5698 5696 5695 5693 5691 5689
5825 5825 5824 5823 5822 5821 5821 5820 5819 5818 5817 5815 5813 5812 5810 5809 5807 5806 5804 5803 5802 5800 5798 5797 5795 5794 5792 5790 5789 5787 5786 5785 5783 5781 5780 5778 5776 5774 5772 5770 5768 5766 5764 5762 5760 5758 5756 5753 5751 5748 5745 5743 5741 5739 5737 5735 5733 5730 5728 5726 5724 5722 5720 5718 5716 5714 5711 5709 5707 5706 5704 5702 5701 5699 5697 5695 5694 5692 5690 5689 5687 5685 5684 5682 5681
5822 5821 5820 5819 5818 5817 5817 5816 5815 5813 5812 5810 5808 5807 5805 5803 5802 5800 5799 5798 5796 5795 5793 5792 5790 5789 5787 5786 5785 5783 5782 5780 5778 5776 5774 5773 5770 5768 5766 5764 5762 5760 5757 5755 5753 5751 5748 5746 5743 5741 5738 5735 5733 5731 5729 5726 5724 5722 5720 5717 5715 5713 5711 5709 5706 5704 5702 5699 5697 5695 5693 5692 5690 5688 5686 5685 5683 5682 5680 5679 5677 5676 5674 5673 5672
5818 5817 5816 5815 5814 5813 5812 5812 5811 5809 5808 5806 5804 5802 5800 5798 5797 5796 5795 5793 5792 5790 5788 5787 5785 5783 5782 5780 5779 5778 5777 5776 5774 5771 5770 5768 5765 5763 5761 5759 5757 5754 5751 5748 5746 5744 5741 5738 5735 5733 5730 5727 5725 5722 5720 5718 5715 5713 5710 5708 5706 5704 5701 5699 5697 5694 5692 5690 5688 5685 5683 5681 5679 5678 5676 5674 5673 5672 5670 5669 5667 5666 5664 5663 5662
5814 5813 5812 5811 5810 5808 5807 5806 5806 5805 5804 5802 5800 5798 5796 5795 5793 5791 5790 5788 5787 5785 5784 5782 5780 5778 5776 5775 5773 5772 5771 5769 5767 5765 5764 5762 5759 5757 5754 5752 5750 5747 5744 5742 5739 5737 5734 5731 5728 5725 5721 5718 5715 5713 5710 5708 5706 5703 5701 5699 5696 5694 5692 5689 5687 5685 5683 5681 5679 5676 5674 5672 5669 5668 5666 5665 5663 5662 5661 5659 5657 5656 5655 5653 5652
5811 5810 5808 5807 5805 5804 5803 5802 5801 5800 5799 5797 5796 5794 5793 5791 5790 5788 5786 5784 5783 5781 5780 5778 5776 5774 5772 5770 5768 5766 5764 5762 5760 5758 5756 5754 5752 5750 5747 5745 5742 5740 5737 5734 5731 5729 5726 5724 5720 5717 5713 5709 5706 5703 5701 5698 5696 5693 5691 5689 5687 5685 5682 5680 5678 5676 5674 5672 5670 5668 5666 5663 5661 5659 5657 5656 5654 5653 5651 5650 5648 5647 5646 5645 5644
5806 5805 5804 5803 5801 5800 5799 5798 5796 5795 5794 5792 5791 5789 5788 5787 5785 5784 5782 5781 5779 5778 5776 5774 5772 5770 5768 5766 5763 5761 5759 5756 5754 5751 5749 5747 5745 5742 5739 5737 5734 5731 5728 5726 5723 5720 5717 5715 5712 5708 5705 5702 5698 5695 5693 5691 5688 5685 5682 5680 5677 5675 5673 5672 5670 5667 5665 5663 5661 5659 5657 5654 5652 5650 5649 5647 5646 5645 5643 5642 5640 5639 5639 5638 5636
5802 5800 5799 5798 5797 5796 5795 5794 5792 5791 5790 5788 5787 5785 5784 5782 5781 5779 5778 5776 5775 5773 5771 5769 5767 5766 5763 5760 5758 5755 5753 5751 5748 5745 5743 5740 5738 5735 5732 5729 5726 5723 5720 5717 5715 5712 5709 5706 5703 5700 5697 5693 5690 5688 5686 5683 5681 5678 5675 5672 5670 5667 5665 5663 5661 5659 5656 5654 5651 5649 5648 5646 5644 5642 5641 5639 5638 5637 5635 5634 5633 5632 5631 5630 5629
5797 5796 5795 5794 5793 5791 5790 5789 5788 5787 5786 5785 5783 5781 5780 5778 5777 5775 5774 5772 5770 5768 5766 5764 5762 5760 5757 5755 5752 5749 5747 5744 5742 5739 5737 5734 5730 5727 5724 5720 5718 5715 5712 5710 5707 5705 5702 5699 5696 5693 5690 5686 5683 5681 5678 5676 5673 5671 5668 5665 5663 5660 5658 5655 5653 5650 5648 5645 5643 5641 5639 5637 5635 5634 5632 5631 5630 5628 5627 5626 5625 5624 5623 5623 5622
5793 5792 5791 5790 5789 5788 5787 5786 5784 5783 5782 5780 5779 5777 5776 5774 5772 5771 5769 5767 5765 5763 5761 5759 5757 5754 5751 5749 5746 5743 5740 5737 5734 5732 5729 5727 5724 5720 5717 5713 5711 5708 5705 5703 5700 5698 5695 5693 5690 5687 5684 5680 5677 5674 5672 5669 5666 5664 5661 5658 5656 5653 5650 5647 5644 5642 5640 5638 5635 5633 5630 5628 5627 5625 5624 5623 5621 5620 5619 5618 5617 5616 5616 5615 5615